This is the latest recevied weather packets stored in our database for station/object G0TQM-11. If no packets are shown the sender has not sent any weather packets the latest 10 day(s).
| Time | Temp. | Humidity | Pressure | Rain* | Wind** | Luminosity | Snow |
|---|---|---|---|---|---|---|---|
| 1778241563 | 21.67° C | 39% | 1013.9 hPa | - | - | - | - |
| 1778240362 | 20.56° C | 41% | 1014 hPa | - | - | - | - |
| 1778239166 | 20.56° C | 41% | 1013.9 hPa | - | - | - | - |
| 1778237962 | 20° C | 42% | 1013.8 hPa | - | - | - | - |
| 1778236762 | 20° C | 42% | 1013.9 hPa | - | - | - | - |
| 1778235562 | 18.33° C | 43% | 1013.8 hPa | - | - | - | - |
| 1778234362 | 17.78° C | 44% | 1014 hPa | - | - | - | - |
| 1778233161 | 16.67° C | 45% | 1014 hPa | - | - | - | - |
| 1778231961 | 16.67° C | 45% | 1013.9 hPa | - | - | - | - |
| 1778230761 | 16.11° C | 44% | 1013.9 hPa | - | - | - | - |
| 1778229561 | 15° C | 46% | 1013.7 hPa | - | - | - | - |
| 1778228364 | 14.44° C | 44% | 1013.6 hPa | - | - | - | - |
| 1778227820 | 14.44° C | 44% | 1013.7 hPa | - | - | - | - |
| 1778226619 | 13.33° C | 44% | 1013.5 hPa | - | - | - | - |
| 1778225438 | 12.78° C | 45% | 1013.5 hPa | - | - | - | - |
| 1778224237 | 12.22° C | 45% | 1013.3 hPa | - | - | - | - |
| 1778223037 | 11.67° C | 46% | 1013.3 hPa | - | - | - | - |
| 1778221837 | 11.11° C | 46% | 1013.2 hPa | - | - | - | - |
| 1778220637 | 10.56° C | 46% | 1012.9 hPa | - | - | - | - |
| 1778219437 | 10° C | 47% | 1012.7 hPa | - | - | - | - |
| 1778218237 | 10° C | 47% | 1012.5 hPa | - | - | - | - |
| 1778217037 | 10° C | 46% | 1012.4 hPa | - | - | - | - |
| 1778215837 | 10° C | 47% | 1012.2 hPa | - | - | - | - |
| 1778214636 | 10° C | 47% | 1012.2 hPa | - | - | - | - |
| 1778213436 | 10° C | 46% | 1012.2 hPa | - | - | - | - |
* Rain since midnight (hover to see other rain measurements)
** Current wind speed in m/s (hover to see current wind gust speed)